RYR496E LEZL-GCFV

Flight info

Callsign RYR496E
Flight time 2h 1m
Altitude 37000
Route CLANA N857 KORNO UN857 TERTO
Aircraft B738/M-SDE3FGILRWY/SB1

Departure

Time 2026-04-23 10:36
Airport Seville Airport (LEZL)

Arrival

Time 2026-04-23 12:37
Airport Fuerteventura Airport (GCFV)
Time Latitude Longitude Altitude Speed Heading
2026-04-23 09:58 37.42183 -5.89980 94 ft 0 kts 314°
2026-04-23 10:26 37.42178 -5.89973 93 ft 4 kts 313°
2026-04-23 10:26 37.42161 -5.89947 93 ft 4 kts 300°
2026-04-23 10:26 37.42151 -5.89917 93 ft 4 kts 272°
2026-04-23 10:27 37.42156 -5.89893 92 ft 1 kts 225°
2026-04-23 10:30 37.42151 -5.89899 92 ft 4 kts 225°
2026-04-23 10:30 37.42116 -5.89932 92 ft 7 kts 199°
2026-04-23 10:30 37.42067 -5.89918 95 ft 9 kts 158°
2026-04-23 10:31 37.41997 -5.89871 95 ft 12 kts 132°
2026-04-23 10:31 37.41981 -5.89764 95 ft 16 kts 90°
2026-04-23 10:31 37.41982 -5.89580 97 ft 25 kts 90°
2026-04-23 10:31 37.41983 -5.89355 98 ft 25 kts 89°
2026-04-23 10:32 37.41983 -5.89143 99 ft 23 kts 90°
2026-04-23 10:32 37.41984 -5.88943 101 ft 23 kts 89°
2026-04-23 10:32 37.41985 -5.88749 102 ft 22 kts 90°
2026-04-23 10:32 37.41985 -5.88560 103 ft 21 kts 90°
2026-04-23 10:33 37.41986 -5.88376 104 ft 21 kts 89°
2026-04-23 10:33 37.41986 -5.88190 105 ft 22 kts 90°
2026-04-23 10:33 37.41987 -5.87996 106 ft 22 kts 90°
2026-04-23 10:33 37.41988 -5.87806 107 ft 21 kts 90°
2026-04-23 10:34 37.41988 -5.87622 108 ft 21 kts 90°
2026-04-23 10:34 37.41963 -5.87479 109 ft 16 kts 122°
2026-04-23 10:34 37.41869 -5.87428 112 ft 16 kts 198°
2026-04-23 10:34 37.41805 -5.87529 114 ft 15 kts 258°
2026-04-23 10:35 37.41799 -5.87658 112 ft 15 kts 270°
2026-04-23 10:35 37.41798 -5.88070 107 ft 84 kts 270°
2026-04-23 10:35 37.41794 -5.89095 100 ft 148 kts 270°
2026-04-23 10:35 37.41796 -5.90580 317 ft 183 kts 269°
2026-04-23 10:36 37.41823 -5.92175 1153 ft 185 kts 270°
2026-04-23 10:36 37.42101 -5.93793 1776 ft 205 kts 299°
2026-04-23 10:36 37.43220 -5.94986 2192 ft 219 kts 325°
2026-04-23 10:36 37.44135 -5.96427 2840 ft 208 kts 279°
2026-04-23 10:37 37.44142 -5.98120 3811 ft 189 kts 266°
2026-04-23 10:37 37.44180 -5.99792 4578 ft 194 kts 269°
2026-04-23 10:37 37.44238 -6.01522 5166 ft 203 kts 267°
2026-04-23 10:37 37.43940 -6.03235 5723 ft 203 kts 244°
2026-04-23 10:38 37.43251 -6.04793 6241 ft 205 kts 230°
2026-04-23 10:38 37.42179 -6.06059 6464 ft 222 kts 210°
2026-04-23 10:38 37.40734 -6.06925 6611 ft 240 kts 194°
2026-04-23 10:38 37.39026 -6.07109 6872 ft 254 kts 176°
2026-04-23 10:39 37.37209 -6.06978 7275 ft 266 kts 176°
2026-04-23 10:39 37.35355 -6.06831 8087 ft 266 kts 175°
2026-04-23 10:39 37.33509 -6.06678 8942 ft 266 kts 176°
2026-04-23 10:39 37.31658 -6.06532 9750 ft 267 kts 176°
2026-04-23 10:40 37.29790 -6.06386 10447 ft 270 kts 176°
2026-04-23 10:40 37.27870 -6.06237 10854 ft 287 kts 176°
2026-04-23 10:40 37.25798 -6.06076 11020 ft 309 kts 176°
2026-04-23 10:40 37.23605 -6.05906 11457 ft 321 kts 176°
2026-04-23 10:41 37.21366 -6.05731 12137 ft 324 kts 177°
2026-04-23 10:41 37.19114 -6.05556 12910 ft 325 kts 177°
2026-04-23 10:41 37.16850 -6.05437 13648 ft 327 kts 184°
2026-04-23 10:41 37.14637 -6.06124 14319 ft 331 kts 202°
2026-04-23 10:42 37.12652 -6.07609 15006 ft 337 kts 216°
2026-04-23 10:42 37.10833 -6.09484 15735 ft 340 kts 218°
2026-04-23 10:42 37.09039 -6.11421 16499 ft 341 kts 218°
2026-04-23 10:42 37.07223 -6.13366 17128 ft 346 kts 217°
2026-04-23 10:43 37.05365 -6.15321 17744 ft 351 kts 217°
2026-04-23 10:43 37.03477 -6.17289 18409 ft 354 kts 217°
2026-04-23 10:43 37.01578 -6.19274 19012 ft 357 kts 217°
2026-04-23 10:43 36.99672 -6.21290 19593 ft 361 kts 217°
2026-04-23 10:44 36.97752 -6.23331 20161 ft 364 kts 217°
2026-04-23 10:44 36.95815 -6.25392 20731 ft 367 kts 217°
2026-04-23 10:44 36.93861 -6.27468 21300 ft 370 kts 217°
2026-04-23 10:44 36.91889 -6.29561 21833 ft 374 kts 217°
2026-04-23 10:45 36.89898 -6.31672 22376 ft 377 kts 217°
2026-04-23 10:45 36.87889 -6.33800 22902 ft 380 kts 217°
2026-04-23 10:45 36.85864 -6.35942 23426 ft 384 kts 217°
2026-04-23 10:45 36.83818 -6.38106 23886 ft 387 kts 217°
2026-04-23 10:46 36.81761 -6.40279 24347 ft 389 kts 217°
2026-04-23 10:46 36.79690 -6.42465 24792 ft 391 kts 217°
2026-04-23 10:46 36.77608 -6.44662 25229 ft 393 kts 217°
2026-04-23 10:46 36.75540 -6.46842 25683 ft 395 kts 217°
2026-04-23 10:47 36.73440 -6.49055 26202 ft 395 kts 217°
2026-04-23 10:47 36.71336 -6.51270 26638 ft 397 kts 217°
2026-04-23 10:47 36.69216 -6.53498 27009 ft 400 kts 217°
2026-04-23 10:47 36.67081 -6.55742 27389 ft 403 kts 217°
2026-04-23 10:48 36.64933 -6.57997 27796 ft 405 kts 217°
2026-04-23 10:48 36.62775 -6.60262 28193 ft 407 kts 217°
2026-04-23 10:48 36.60607 -6.62537 28570 ft 409 kts 217°
2026-04-23 10:48 36.58425 -6.64824 28937 ft 411 kts 217°
2026-04-23 10:49 36.56230 -6.67123 29300 ft 413 kts 217°
2026-04-23 10:49 36.54026 -6.69430 29664 ft 415 kts 217°
2026-04-23 10:49 36.51809 -6.71747 30026 ft 417 kts 217°
2026-04-23 10:49 36.49583 -6.74066 30315 ft 419 kts 217°
2026-04-23 10:50 36.47337 -6.76388 30591 ft 421 kts 217°
2026-04-23 10:50 36.45081 -6.78708 30910 ft 421 kts 217°
2026-04-23 10:50 36.42829 -6.81023 31324 ft 419 kts 217°
2026-04-23 10:50 36.40591 -6.83322 31756 ft 417 kts 217°
2026-04-23 10:51 36.38363 -6.85612 32177 ft 416 kts 217°
2026-04-23 10:51 36.36136 -6.87899 32552 ft 415 kts 217°
2026-04-23 10:51 36.33915 -6.90179 32880 ft 415 kts 217°
2026-04-23 10:51 36.31695 -6.92456 33220 ft 414 kts 217°
2026-04-23 10:52 36.29476 -6.94731 33568 ft 413 kts 218°
2026-04-23 10:52 36.27259 -6.97003 33868 ft 414 kts 217°
2026-04-23 10:52 36.25040 -6.99275 34158 ft 414 kts 218°
2026-04-23 10:52 36.22825 -7.01541 34474 ft 412 kts 218°
2026-04-23 10:53 36.20615 -7.03801 34782 ft 411 kts 218°
2026-04-23 10:53 36.18411 -7.06052 35051 ft 411 kts 218°
2026-04-23 10:53 36.16209 -7.08301 35322 ft 410 kts 218°
2026-04-23 10:53 36.14009 -7.10544 35604 ft 409 kts 218°
2026-04-23 10:54 36.11814 -7.12782 35885 ft 408 kts 218°
2026-04-23 10:54 36.09623 -7.15014 36131 ft 408 kts 218°
2026-04-23 10:54 36.07428 -7.17247 36343 ft 409 kts 218°
2026-04-23 10:54 36.05229 -7.19483 36568 ft 409 kts 219°
2026-04-23 10:55 36.03037 -7.21711 36836 ft 408 kts 219°
2026-04-23 10:55 36.00850 -7.23932 37082 ft 407 kts 219°
2026-04-23 10:55 35.96428 -7.28417 37063 ft 415 kts 219°
2026-04-23 10:56 35.91924 -7.32980 37074 ft 423 kts 219°
2026-04-23 10:56 35.87391 -7.37566 37066 ft 425 kts 219°
2026-04-23 10:57 35.82805 -7.42196 37062 ft 427 kts 219°
2026-04-23 10:57 35.78197 -7.46803 37067 ft 427 kts 219°
2026-04-23 10:58 35.73582 -7.51396 37067 ft 426 kts 219°
2026-04-23 10:58 35.68985 -7.55970 37067 ft 425 kts 219°
2026-04-23 10:59 35.64398 -7.60531 37089 ft 423 kts 219°
2026-04-23 10:59 35.59819 -7.65077 37073 ft 423 kts 219°
2026-04-23 11:00 35.55252 -7.69603 37070 ft 421 kts 219°
2026-04-23 11:00 35.50694 -7.74117 37073 ft 420 kts 219°
2026-04-23 11:01 35.46144 -7.78616 37071 ft 420 kts 219°
2026-04-23 11:01 35.41600 -7.83100 37068 ft 419 kts 219°
2026-04-23 11:02 35.37072 -7.87605 37072 ft 419 kts 219°
2026-04-23 11:02 35.32563 -7.92116 37069 ft 419 kts 219°
2026-04-23 11:03 35.28047 -7.96627 37071 ft 419 kts 219°
2026-04-23 11:03 35.23530 -8.01129 37062 ft 419 kts 220°
2026-04-23 11:04 35.19011 -8.05624 37070 ft 419 kts 220°
2026-04-23 11:04 35.14490 -8.10115 37071 ft 419 kts 220°
2026-04-23 11:05 35.09962 -8.14605 37072 ft 419 kts 220°
2026-04-23 11:05 35.05432 -8.19091 37071 ft 420 kts 220°
2026-04-23 11:06 34.98622 -8.25822 37074 ft 420 kts 220°
2026-04-23 11:07 34.94079 -8.30303 37063 ft 420 kts 220°
2026-04-23 11:07 34.89536 -8.34779 37088 ft 420 kts 220°
2026-04-23 11:08 34.85017 -8.39224 37075 ft 421 kts 220°
2026-04-23 11:08 34.80465 -8.43696 37073 ft 421 kts 220°
2026-04-23 11:09 34.75908 -8.48166 37074 ft 421 kts 220°
2026-04-23 11:09 34.71351 -8.52630 37073 ft 421 kts 220°
2026-04-23 11:10 34.66794 -8.57086 37069 ft 420 kts 220°
2026-04-23 11:10 34.62238 -8.61536 37076 ft 420 kts 220°
2026-04-23 11:11 34.57680 -8.65981 37076 ft 420 kts 220°
2026-04-23 11:11 34.53122 -8.70420 37076 ft 420 kts 220°
2026-04-23 11:12 34.48564 -8.74854 37078 ft 420 kts 220°
2026-04-23 11:12 34.44774 -8.78534 37072 ft 420 kts 220°
2026-04-23 11:13 34.40207 -8.82941 37071 ft 420 kts 220°
2026-04-23 11:13 34.35634 -8.87331 37077 ft 419 kts 220°
2026-04-23 11:14 34.31067 -8.91712 37075 ft 419 kts 220°
2026-04-23 11:14 34.26498 -8.96090 37074 ft 419 kts 220°
2026-04-23 11:15 34.21932 -9.00462 37075 ft 419 kts 220°
2026-04-23 11:15 34.17364 -9.04830 37077 ft 419 kts 220°
2026-04-23 11:16 34.12797 -9.09190 37077 ft 418 kts 220°
2026-04-23 11:16 34.08233 -9.13541 37073 ft 418 kts 220°
2026-04-23 11:17 34.03674 -9.17882 37077 ft 417 kts 220°
2026-04-23 11:17 33.99118 -9.22213 37076 ft 417 kts 220°
2026-04-23 11:18 33.94564 -9.26536 37078 ft 417 kts 220°
2026-04-23 11:18 33.90010 -9.30854 37075 ft 416 kts 220°
2026-04-23 11:19 33.85488 -9.35135 37060 ft 416 kts 220°
2026-04-23 11:19 33.80937 -9.39438 37078 ft 416 kts 220°
2026-04-23 11:20 33.76388 -9.43732 37082 ft 416 kts 220°
2026-04-23 11:20 33.71838 -9.48022 37078 ft 416 kts 220°
2026-04-23 11:21 33.67283 -9.52310 37073 ft 416 kts 220°
2026-04-23 11:21 33.62732 -9.56589 37073 ft 416 kts 220°
2026-04-23 11:22 33.58180 -9.60863 37076 ft 416 kts 220°
2026-04-23 11:22 33.53625 -9.65133 37077 ft 415 kts 220°
2026-04-23 11:23 33.49076 -9.69393 37074 ft 415 kts 220°
2026-04-23 11:23 33.44525 -9.73648 37069 ft 415 kts 220°
2026-04-23 11:24 33.39972 -9.77899 37073 ft 415 kts 220°
2026-04-23 11:24 33.35421 -9.82144 37072 ft 415 kts 220°
2026-04-23 11:25 33.30869 -9.86383 37077 ft 415 kts 220°
2026-04-23 11:25 33.26322 -9.90611 37074 ft 414 kts 220°
2026-04-23 11:26 33.21781 -9.94828 37071 ft 413 kts 220°
2026-04-23 11:26 33.17247 -9.99034 37071 ft 413 kts 220°
2026-04-23 11:27 33.12717 -10.03230 37080 ft 412 kts 220°
2026-04-23 11:27 33.08187 -10.07421 37075 ft 412 kts 220°
2026-04-23 11:28 33.03658 -10.11607 37072 ft 412 kts 220°
2026-04-23 11:28 32.99129 -10.15783 37076 ft 412 kts 220°
2026-04-23 11:29 32.94598 -10.19952 37079 ft 412 kts 220°
2026-04-23 11:29 32.90067 -10.24118 37075 ft 411 kts 220°
2026-04-23 11:30 32.85537 -10.28278 37078 ft 411 kts 220°
2026-04-23 11:30 32.81012 -10.32428 37079 ft 411 kts 220°
2026-04-23 11:31 32.76486 -10.36575 37082 ft 411 kts 220°
2026-04-23 11:31 32.71993 -10.40686 37059 ft 410 kts 220°
2026-04-23 11:32 32.67472 -10.44816 37082 ft 410 kts 220°
2026-04-23 11:32 32.62923 -10.48968 37082 ft 410 kts 220°
2026-04-23 11:33 32.58405 -10.53085 37073 ft 409 kts 220°
2026-04-23 11:33 32.53919 -10.57168 37080 ft 409 kts 220°
2026-04-23 11:34 32.49401 -10.61275 37074 ft 409 kts 220°
2026-04-23 11:34 32.44883 -10.65376 37077 ft 409 kts 220°
2026-04-23 11:35 32.40372 -10.69465 37070 ft 408 kts 220°
2026-04-23 11:35 32.35866 -10.73546 37083 ft 408 kts 220°
2026-04-23 11:36 32.31365 -10.77615 37077 ft 407 kts 220°
2026-04-23 11:36 32.26860 -10.81684 37083 ft 407 kts 220°
2026-04-23 11:37 32.22358 -10.85745 37072 ft 407 kts 220°
2026-04-23 11:37 32.17857 -10.89800 37075 ft 407 kts 220°
2026-04-23 11:38 32.13354 -10.93851 37065 ft 407 kts 221°
2026-04-23 11:38 32.08856 -10.97890 37079 ft 406 kts 221°
2026-04-23 11:39 32.04358 -11.01923 37076 ft 406 kts 220°
2026-04-23 11:39 31.99866 -11.05946 37078 ft 406 kts 220°
2026-04-23 11:40 31.95371 -11.09969 37080 ft 405 kts 220°
2026-04-23 11:40 31.90913 -11.13954 37078 ft 405 kts 220°
2026-04-23 11:41 31.86417 -11.17968 37079 ft 405 kts 220°
2026-04-23 11:41 31.81901 -11.21999 37074 ft 405 kts 221°
2026-04-23 11:42 31.77446 -11.25970 37079 ft 404 kts 221°
2026-04-23 11:42 31.72959 -11.29956 37078 ft 404 kts 221°
2026-04-23 11:43 31.68470 -11.33939 37083 ft 405 kts 221°
2026-04-23 11:43 31.63983 -11.37931 37080 ft 405 kts 221°
2026-04-23 11:44 31.59498 -11.41927 37079 ft 405 kts 221°
2026-04-23 11:44 31.55016 -11.45917 37057 ft 405 kts 221°
2026-04-23 11:45 31.50537 -11.49899 37066 ft 404 kts 221°
2026-04-23 11:45 31.46058 -11.53870 37077 ft 403 kts 221°
2026-04-23 11:46 31.41581 -11.57832 37079 ft 403 kts 221°
2026-04-23 11:46 31.37102 -11.61790 37079 ft 403 kts 221°
2026-04-23 11:47 31.32623 -11.65742 37079 ft 403 kts 221°
2026-04-23 11:47 31.28144 -11.69690 37080 ft 403 kts 221°
2026-04-23 11:48 31.23666 -11.73632 37066 ft 402 kts 221°
2026-04-23 11:48 31.19203 -11.77556 37078 ft 401 kts 221°
2026-04-23 11:49 31.14750 -11.81467 37080 ft 400 kts 221°
2026-04-23 11:49 31.10301 -11.85370 37085 ft 400 kts 221°
2026-04-23 11:50 31.05852 -11.89268 37087 ft 400 kts 221°
2026-04-23 11:50 31.01435 -11.93134 37082 ft 400 kts 221°
2026-04-23 11:51 30.96988 -11.97021 37079 ft 399 kts 221°
2026-04-23 11:51 30.92548 -12.00897 37074 ft 398 kts 221°
2026-04-23 11:52 30.88116 -12.04761 37092 ft 398 kts 221°
2026-04-23 11:52 30.83686 -12.08620 37079 ft 398 kts 221°
2026-04-23 11:53 30.79257 -12.12473 37084 ft 397 kts 221°
2026-04-23 11:53 30.74829 -12.16321 37087 ft 397 kts 221°
2026-04-23 11:54 30.70399 -12.20166 37084 ft 397 kts 221°
2026-04-23 11:54 30.65967 -12.24008 37054 ft 397 kts 221°
2026-04-23 11:55 30.61543 -12.27839 37075 ft 396 kts 221°
2026-04-23 11:55 30.57126 -12.31660 37088 ft 396 kts 221°
2026-04-23 11:56 30.52713 -12.35474 37086 ft 395 kts 221°
2026-04-23 11:56 30.48299 -12.39284 37085 ft 395 kts 221°
2026-04-23 11:57 30.43880 -12.43078 37090 ft 396 kts 221°
2026-04-23 11:57 30.39454 -12.46870 37084 ft 396 kts 221°
2026-04-23 11:58 30.35774 -12.50023 37079 ft 396 kts 221°
2026-04-23 11:58 30.31357 -12.53805 37078 ft 395 kts 221°
2026-04-23 11:59 30.26945 -12.57579 37089 ft 394 kts 221°
2026-04-23 11:59 30.21826 -12.61954 37089 ft 394 kts 221°
2026-04-23 12:00 30.18134 -12.65106 37082 ft 394 kts 221°
2026-04-23 12:00 30.13732 -12.68860 37093 ft 393 kts 221°
2026-04-23 12:01 30.09281 -12.72552 37083 ft 396 kts 218°
2026-04-23 12:01 30.04498 -12.75678 37092 ft 399 kts 214°
2026-04-23 12:02 29.99597 -12.78695 37087 ft 399 kts 214°
2026-04-23 12:02 29.94717 -12.81752 37091 ft 399 kts 215°
2026-04-23 12:03 29.89855 -12.84840 37088 ft 399 kts 215°
2026-04-23 12:03 29.84992 -12.87941 37087 ft 399 kts 215°
2026-04-23 12:04 29.80127 -12.91043 37090 ft 400 kts 215°
2026-04-23 12:04 29.75260 -12.94142 37057 ft 400 kts 216°
2026-04-23 12:04 29.72821 -12.95694 36770 ft 404 kts 215°
2026-04-23 12:05 29.70362 -12.97259 36297 ft 403 kts 215°
2026-04-23 12:05 29.67910 -12.98816 35692 ft 402 kts 215°
2026-04-23 12:05 29.65456 -13.00374 35026 ft 404 kts 214°
2026-04-23 12:05 29.62984 -13.01944 34329 ft 407 kts 214°
2026-04-23 12:06 29.60492 -13.03526 33541 ft 411 kts 214°
2026-04-23 12:06 29.57978 -13.05120 32786 ft 413 kts 214°
2026-04-23 12:06 29.53006 -13.08265 31730 ft 408 kts 214°
2026-04-23 12:07 29.50528 -13.09831 31227 ft 405 kts 214°
2026-04-23 12:07 29.48039 -13.11405 30727 ft 402 kts 214°
2026-04-23 12:07 29.45632 -13.12927 30209 ft 399 kts 214°
2026-04-23 12:07 29.43204 -13.14462 29662 ft 397 kts 214°
2026-04-23 12:08 29.40800 -13.15981 29134 ft 393 kts 214°
2026-04-23 12:08 29.38413 -13.17488 28616 ft 389 kts 214°
2026-04-23 12:08 29.36049 -13.18975 28118 ft 386 kts 213°
2026-04-23 12:08 29.33656 -13.20357 27635 ft 384 kts 211°
2026-04-23 12:09 29.31250 -13.21661 27139 ft 381 kts 210°
2026-04-23 12:09 29.28859 -13.22942 26672 ft 378 kts 210°
2026-04-23 12:09 29.26493 -13.24222 26204 ft 375 kts 210°
2026-04-23 12:09 29.24150 -13.25502 25739 ft 372 kts 210°
2026-04-23 12:10 29.21824 -13.26777 25271 ft 369 kts 210°
2026-04-23 12:10 29.19514 -13.28045 24811 ft 368 kts 210°
2026-04-23 12:10 29.17214 -13.29306 24360 ft 366 kts 210°
2026-04-23 12:10 29.14919 -13.30562 23882 ft 367 kts 210°
2026-04-23 12:11 29.12611 -13.31826 23390 ft 369 kts 210°
2026-04-23 12:11 29.10293 -13.33095 22884 ft 369 kts 210°
2026-04-23 12:11 29.07985 -13.34356 22401 ft 366 kts 210°
2026-04-23 12:11 29.05694 -13.35608 21938 ft 364 kts 210°
2026-04-23 12:12 29.03418 -13.36850 21484 ft 361 kts 209°
2026-04-23 12:12 29.01156 -13.38085 21039 ft 359 kts 209°
2026-04-23 12:12 28.98909 -13.39311 20595 ft 358 kts 209°
2026-04-23 12:12 28.96668 -13.40534 20156 ft 356 kts 209°
2026-04-23 12:13 28.94436 -13.41752 19718 ft 355 kts 209°
2026-04-23 12:13 28.92209 -13.42966 19281 ft 354 kts 208°
2026-04-23 12:13 28.89986 -13.44177 18842 ft 353 kts 208°
2026-04-23 12:13 28.87770 -13.45384 18390 ft 353 kts 208°
2026-04-23 12:14 28.85554 -13.46590 17888 ft 352 kts 208°
2026-04-23 12:14 28.83350 -13.47789 17428 ft 350 kts 208°
2026-04-23 12:14 28.81161 -13.48979 17001 ft 347 kts 208°
2026-04-23 12:14 28.78986 -13.50161 16572 ft 345 kts 208°
2026-04-23 12:15 28.76851 -13.51321 16147 ft 344 kts 208°
2026-04-23 12:15 28.74696 -13.52491 15716 ft 342 kts 208°
2026-04-23 12:15 28.72549 -13.53657 15298 ft 341 kts 208°
2026-04-23 12:15 28.70407 -13.54819 14880 ft 341 kts 208°
2026-04-23 12:16 28.68308 -13.55957 14475 ft 340 kts 208°
2026-04-23 12:16 28.66355 -13.57016 14080 ft 337 kts 208°
2026-04-23 12:16 28.64242 -13.58161 13626 ft 335 kts 208°
2026-04-23 12:16 28.62147 -13.59295 13176 ft 332 kts 208°
2026-04-23 12:17 28.60073 -13.60419 12748 ft 329 kts 208°
2026-04-23 12:17 28.58018 -13.61531 12335 ft 326 kts 208°
2026-04-23 12:17 28.55979 -13.62634 11925 ft 323 kts 208°
2026-04-23 12:17 28.53960 -13.63725 11520 ft 320 kts 208°
2026-04-23 12:18 28.51958 -13.64775 11115 ft 313 kts 206°
2026-04-23 12:18 28.49992 -13.65731 10735 ft 303 kts 206°
2026-04-23 12:18 28.48081 -13.66650 10363 ft 293 kts 206°
2026-04-23 12:18 28.46206 -13.67475 10012 ft 287 kts 196°
2026-04-23 12:19 28.44267 -13.67607 9913 ft 274 kts 181°
2026-04-23 12:19 28.42339 -13.67341 9366 ft 278 kts 175°
2026-04-23 12:19 28.40436 -13.66998 8935 ft 275 kts 175°
2026-04-23 12:19 28.38561 -13.66673 8589 ft 272 kts 176°
2026-04-23 12:20 28.36693 -13.66365 8238 ft 269 kts 176°
2026-04-23 12:20 28.34904 -13.65780 7976 ft 267 kts 155°
2026-04-23 12:20 28.33334 -13.64758 7991 ft 256 kts 155°
2026-04-23 12:20 28.31776 -13.63764 8008 ft 260 kts 155°
2026-04-23 12:21 28.30176 -13.62760 8021 ft 266 kts 155°
2026-04-23 12:21 28.28547 -13.61745 8024 ft 268 kts 155°
2026-04-23 12:21 28.26916 -13.60731 8026 ft 268 kts 156°
2026-04-23 12:21 28.25277 -13.59714 8019 ft 267 kts 156°
2026-04-23 12:22 28.23570 -13.59063 7990 ft 252 kts 182°
2026-04-23 12:22 28.21872 -13.59160 8005 ft 240 kts 191°
2026-04-23 12:22 28.20230 -13.59409 8001 ft 236 kts 192°
2026-04-23 12:22 28.18604 -13.59668 8004 ft 236 kts 192°
2026-04-23 12:23 28.16962 -13.59920 8008 ft 240 kts 192°
2026-04-23 12:23 28.15293 -13.60169 8014 ft 243 kts 192°
2026-04-23 12:23 28.13618 -13.60413 8012 ft 242 kts 192°
2026-04-23 12:23 28.11951 -13.60654 8009 ft 241 kts 192°
2026-04-23 12:24 28.10385 -13.61207 7987 ft 233 kts 217°
2026-04-23 12:24 28.09128 -13.62333 8001 ft 230 kts 224°
2026-04-23 12:24 28.07939 -13.63545 8007 ft 230 kts 225°
2026-04-23 12:24 28.06755 -13.64764 8005 ft 231 kts 225°
2026-04-23 12:25 28.05561 -13.65982 8004 ft 231 kts 224°
2026-04-23 12:25 28.04363 -13.67197 8005 ft 232 kts 224°
2026-04-23 12:25 28.03158 -13.68413 8006 ft 232 kts 224°
2026-04-23 12:25 28.01965 -13.69615 8008 ft 233 kts 224°
2026-04-23 12:26 28.00857 -13.70934 7966 ft 231 kts 242°
2026-04-23 12:26 28.00305 -13.72591 7878 ft 220 kts 255°
2026-04-23 12:26 27.99945 -13.74238 7709 ft 212 kts 256°
2026-04-23 12:26 27.99609 -13.75842 7554 ft 208 kts 256°
2026-04-23 12:27 27.99272 -13.77428 7373 ft 207 kts 256°
2026-04-23 12:27 27.98934 -13.79001 7202 ft 205 kts 256°
2026-04-23 12:27 27.98594 -13.80569 7030 ft 204 kts 256°
2026-04-23 12:27 27.98259 -13.82127 6861 ft 203 kts 258°
2026-04-23 12:28 27.98346 -13.83699 6686 ft 204 kts 290°
2026-04-23 12:28 27.99189 -13.85002 6461 ft 212 kts 318°
2026-04-23 12:28 28.00536 -13.85688 6276 ft 218 kts 347°
2026-04-23 12:28 28.02047 -13.85836 6098 ft 218 kts 353°
2026-04-23 12:29 28.03567 -13.85925 5901 ft 219 kts 354°
2026-04-23 12:29 28.05085 -13.86011 5705 ft 218 kts 354°
2026-04-23 12:29 28.06603 -13.86098 5524 ft 218 kts 354°
2026-04-23 12:29 28.08112 -13.86187 5343 ft 217 kts 355°
2026-04-23 12:30 28.09614 -13.86276 5164 ft 215 kts 355°
2026-04-23 12:30 28.11101 -13.86367 4986 ft 213 kts 355°
2026-04-23 12:30 28.12573 -13.86457 4808 ft 211 kts 355°
2026-04-23 12:30 28.14029 -13.86546 4623 ft 208 kts 355°
2026-04-23 12:31 28.15470 -13.86635 4450 ft 206 kts 356°
2026-04-23 12:31 28.16897 -13.86724 4274 ft 204 kts 355°
2026-04-23 12:31 28.18310 -13.86812 4106 ft 203 kts 356°
2026-04-23 12:31 28.19714 -13.86900 3938 ft 201 kts 356°
2026-04-23 12:32 28.21110 -13.86987 3779 ft 201 kts 356°
2026-04-23 12:32 28.22502 -13.87074 3609 ft 200 kts 356°
2026-04-23 12:32 28.23897 -13.87107 3445 ft 201 kts
2026-04-23 12:32 28.25296 -13.87052 3265 ft 202 kts
2026-04-23 12:33 28.26705 -13.86995 3105 ft 204 kts
2026-04-23 12:33 28.28128 -13.86945 2943 ft 206 kts
2026-04-23 12:33 28.29572 -13.86897 2691 ft 206 kts
2026-04-23 12:33 28.30957 -13.86850 2549 ft 192 kts 360°
2026-04-23 12:34 28.32255 -13.86807 2340 ft 183 kts 359°
2026-04-23 12:34 28.33502 -13.86767 2107 ft 177 kts
2026-04-23 12:34 28.34716 -13.86726 1881 ft 172 kts
2026-04-23 12:34 28.35898 -13.86687 1641 ft 167 kts 359°
2026-04-23 12:35 28.37042 -13.86650 1427 ft 161 kts
2026-04-23 12:35 28.38112 -13.86611 1251 ft 150 kts 357°
2026-04-23 12:35 28.39120 -13.86592 1040 ft 145 kts
2026-04-23 12:35 28.40155 -13.86532 849 ft 153 kts
2026-04-23 12:36 28.41225 -13.86526 678 ft 152 kts
2026-04-23 12:36 28.42273 -13.86469 418 ft 152 kts
2026-04-23 12:36 28.43329 -13.86438 213 ft 148 kts
2026-04-23 12:36 28.44334 -13.86410 58 ft 143 kts
2026-04-23 12:37 28.45218 -13.86377 75 ft 107 kts
2026-04-23 12:37 28.45793 -13.86358 90 ft 58 kts 360°
2026-04-23 12:37 28.46044 -13.86415 93 ft 31 kts 333°
2026-04-23 12:37 28.46143 -13.86494 98 ft 13 kts 282°
2026-04-23 12:38 28.46099 -13.86539 97 ft 9 kts 182°
2026-04-23 12:38 28.46026 -13.86545 97 ft 14 kts 181°
2026-04-23 12:38 28.45919 -13.86548 97 ft 16 kts 181°
2026-04-23 12:38 28.45791 -13.86552 97 ft 18 kts 183°
2026-04-23 12:39 28.45710 -13.86589 97 ft 9 kts 261°
2026-04-23 12:39 28.45713 -13.86655 101 ft 8 kts 273°
2026-04-23 12:39 28.45701 -13.86715 98 ft 8 kts 219°
2026-04-23 12:39 28.45647 -13.86727 98 ft 8 kts 179°
2026-04-23 12:40 28.45568 -13.86729 98 ft 16 kts 181°
2026-04-23 12:40 28.45455 -13.86731 98 ft 16 kts 182°
2026-04-23 12:40 28.45345 -13.86736 98 ft 15 kts 181°
2026-04-23 12:40 28.45239 -13.86739 99 ft 15 kts 181°
2026-04-23 12:41 28.45138 -13.86742 98 ft 14 kts 181°
2026-04-23 12:41 28.45069 -13.86744 98 ft 5 kts 182°
2026-04-23 12:41 28.45050 -13.86761 101 ft 4 kts 252°
2026-04-23 12:41 28.45049 -13.86790 100 ft 4 kts 271°
2026-04-23 12:42 28.45050 -13.86817 98 ft 3 kts 272°
2026-04-23 12:42 28.45050 -13.86840 101 ft 1 kts 272°
2026-04-23 12:42 28.45051 -13.86841 101 ft 0 kts 272°